contact:dominique.lefevre@mio.osupytheas.fr, maurice.libes@osupytheas.fr, didier.mallarino@osupytheas.fr
Project:EMSO http://www.emso-fr.org/EMSO-France
Depth: 2436.0 m
Title:EMSO Ligure Ouest : Data MII capteur AQUADOPP
Date,Latitude,Longitude,X_East,Y_North,Z_Up,Amplitude_X,Amplitude_Y,Amplitude_Z,Batterie,SoundSpeed,Heading,Pitch,Roll,Pressure,TIS,Speed,Direction
, degrees North, degrees East, m.s-1, m.s-1,m.s-1, 1, 1, 1, Volt, m.s-1, degree, degree, degree, dbar, degree_C, m.s-1, degree
2019-08-09T00:01:42,42.805,6.029,-0.03,0.023,-0.014,102.0,106.0,98.0,13.3,1505.3,324.8,-0.7,1.8,2470.147,13.33,0.037,307.5
2019-08-09T00:04:43,42.805,6.029,-0.027,0.022,-0.005,102.0,105.0,99.0,13.4,1505.3,325.0,-0.7,1.8,2470.114,13.33,0.034,309.2
2019-08-09T00:07:44,42.805,6.029,-0.028,0.017,-0.007,102.0,105.0,98.0,13.4,1505.3,327.8,-0.7,1.8,2470.091,13.33,0.032,301.3
2019-08-09T00:10:45,42.805,6.029,-0.028,-0.004,0.014,102.0,107.0,98.0,13.4,1505.3,327.8,-0.7,1.8,2470.136,13.33,0.028,261.9
2019-08-09T00:13:46,42.805,6.029,-0.036,0.017,-0.004,102.0,105.0,99.0,13.3,1505.3,327.2,-0.7,1.8,2470.118,13.33,0.039,295.3
2019-08-09T00:16:47,42.805,6.029,-0.048,0.0,-0.051,103.0,105.0,98.0,13.3,1505.3,326.1,-0.7,1.8,2470.136,13.33,0.048,270.0
2019-08-09T00:19:48,42.805,6.029,-0.031,0.005,-0.03,101.0,107.0,98.0,13.4,1505.3,326.9,-0.7,1.8,2470.111,13.33,0.031,279.2
2019-08-09T00:22:49,42.805,6.029,-0.022,0.004,-0.018,101.0,107.0,99.0,13.4,1505.3,323.1,-0.7,1.8,2470.136,13.33,0.022,280.3
2019-08-09T00:25:50,42.805,6.029,-0.016,0.023,0.0,102.0,105.0,100.0,13.3,1505.3,328.1,-0.7,1.8,2470.107,13.33,0.028,325.2
2019-08-09T00:28:51,42.805,6.029,-0.034,0.018,-0.023,102.0,106.0,99.0,13.4,1505.3,325.8,-0.8,1.8,2470.092,13.33,0.038,297.9
2019-08-09T00:31:52,42.805,6.029,-0.014,0.016,-0.013,100.0,107.0,97.0,13.3,1505.3,326.6,-0.7,1.8,2470.142,13.33,0.021,318.8
2019-08-09T00:34:53,42.805,6.029,-0.035,0.012,-0.038,102.0,107.0,99.0,13.3,1505.3,326.5,-0.7,1.9,2470.125,13.33,0.037,288.9
2019-08-09T00:37:54,42.805,6.029,-0.025,0.012,-0.022,101.0,105.0,99.0,13.3,1505.3,323.3,-0.7,1.8,2470.114,13.33,0.027,295.6
2019-08-09T00:40:55,42.805,6.029,-0.024,0.028,0.006,102.0,108.0,98.0,13.4,1505.3,324.3,-0.7,1.8,2470.088,13.33,0.036,319.4
2019-08-09T00:43:56,42.805,6.029,-0.044,0.026,-0.017,101.0,106.0,100.0,13.4,1505.3,328.3,-0.7,1.8,2470.1,13.33,0.051,300.6
2019-08-09T00:46:57,42.805,6.029,-0.051,0.013,-0.001,102.0,106.0,98.0,13.3,1505.3,327.8,-0.7,1.8,2470.094,13.33,0.052,284.3
2019-08-09T00:49:58,42.805,6.029,-0.007,0.032,0.02,101.0,106.0,99.0,13.4,1505.3,323.8,-0.7,1.8,2470.153,13.33,0.032,347.7
2019-08-09T00:52:59,42.805,6.029,-0.026,0.023,-0.042,101.0,106.0,99.0,13.3,1505.3,324.0,-0.7,1.8,2470.116,13.33,0.034,311.5
2019-08-09T00:56:00,42.805,6.029,-0.044,0.005,-0.029,101.0,107.0,99.0,13.3,1505.3,325.2,-0.7,1.8,2470.136,13.33,0.044,276.5
2019-08-09T00:59:01,42.805,6.029,-0.054,0.019,-0.023,103.0,107.0,97.0,13.3,1505.3,326.1,-0.7,1.8,2470.15,13.33,0.057,289.4
2019-08-09T01:02:02,42.805,6.029,-0.038,0.034,-0.019,102.0,107.0,99.0,13.4,1505.3,325.3,-0.7,1.8,2470.173,13.33,0.05,311.8
2019-08-09T01:05:03,42.805,6.029,-0.038,-0.001,-0.003,102.0,106.0,99.0,13.4,1505.3,324.9,-0.7,1.8,2470.145,13.33,0.038,268.5
2019-08-09T01:08:04,42.805,6.029,-0.028,0.02,-0.007,102.0,106.0,99.0,13.4,1505.3,325.5,-0.7,1.8,2470.12,13.33,0.034,305.5
2019-08-09T01:11:05,42.805,6.029,-0.044,0.026,-0.032,101.0,107.0,99.0,13.4,1505.3,326.4,-0.7,1.9,2470.166,13.33,0.051,300.6
2019-08-09T01:14:06,42.805,6.029,-0.059,0.005,-0.045,103.0,107.0,99.0,13.3,1505.3,322.9,-0.7,1.8,2470.132,13.33,0.059,274.8
2019-08-09T01:17:07,42.805,6.029,-0.014,0.004,-0.019,103.0,106.0,98.0,13.3,1505.3,324.8,-0.7,1.8,2470.087,13.33,0.014,285.9
2019-08-09T01:20:08,42.805,6.029,-0.06,0.012,-0.024,102.0,107.0,98.0,13.4,1505.3,322.9,-0.7,1.9,2470.12,13.33,0.061,281.3
2019-08-09T01:23:09,42.805,6.029,-0.059,0.0,0.002,101.0,106.0,99.0,13.4,1505.3,324.5,-0.7,1.8,2470.115,13.33,0.058,270.0
2019-08-09T01:26:10,42.805,6.029,-0.031,0.021,0.004,101.0,106.0,99.0,13.4,1505.3,325.5,-0.7,1.8,2470.119,13.33,0.037,304.1
2019-08-09T01:29:11,42.805,6.029,-0.042,0.023,-0.013,102.0,106.0,98.0,13.3,1505.3,327.1,-0.7,1.8,2470.122,13.33,0.047,298.7
2019-08-09T01:32:12,42.805,6.029,-0.054,0.003,-0.041,102.0,105.0,98.0,13.3,1505.3,327.0,-0.7,1.8,2470.136,13.33,0.054,273.2
2019-08-09T01:35:13,42.805,6.029,-0.051,0.032,0.005,101.0,106.0,98.0,13.3,1505.3,325.6,-0.7,1.8,2470.161,13.33,0.06,302.1
2019-08-09T01:38:14,42.805,6.029,-0.048,0.035,-0.007,102.0,106.0,99.0,13.3,1505.3,327.7,-0.7,1.9,2470.086,13.33,0.059,306.1
2019-08-09T01:41:15,42.805,6.029,-0.035,0.023,-0.035,103.0,106.0,98.0,13.3,1505.3,322.8,-0.7,1.8,2470.106,13.33,0.041,303.3
2019-08-09T01:44:16,42.805,6.029,-0.024,0.013,-0.008,103.0,106.0,99.0,13.4,1505.3,325.8,-0.7,1.8,2470.156,13.33,0.027,298.4
2019-08-09T01:47:17,42.805,6.029,-0.052,-0.001,-0.023,103.0,106.0,99.0,13.4,1505.3,327.1,-0.7,1.9,2470.138,13.33,0.052,268.9
2019-08-09T01:50:18,42.805,6.029,-0.054,0.017,-0.007,103.0,106.0,100.0,13.3,1505.3,325.3,-0.7,1.9,2470.069,13.33,0.056,287.5
2019-08-09T01:53:20,42.805,6.029,-0.041,-0.002,-0.027,103.0,108.0,98.0,13.4,1505.3,322.8,-0.7,1.8,2470.116,13.33,0.041,267.2
2019-08-09T01:56:20,42.805,6.029,-0.042,0.023,-0.025,104.0,106.0,98.0,13.3,1505.3,323.5,-0.7,1.9,2470.088,13.33,0.047,298.7
2019-08-09T01:59:21,42.805,6.029,-0.026,0.031,-0.002,103.0,107.0,99.0,13.3,1505.3,325.3,-0.7,1.8,2470.12,13.33,0.04,320.0
2019-08-09T02:02:22,42.805,6.029,-0.051,0.008,-0.041,102.0,107.0,100.0,13.4,1505.3,324.2,-0.7,1.8,2470.149,13.33,0.051,278.9
2019-08-09T02:05:23,42.805,6.029,-0.029,0.008,0.021,106.0,107.0,100.0,13.4,1505.3,325.3,-0.7,1.9,2470.126,13.33,0.03,285.4
2019-08-09T02:08:24,42.805,6.029,-0.021,0.001,-0.006,102.0,107.0,99.0,13.4,1505.3,328.0,-0.7,1.8,2470.121,13.33,0.021,272.7
2019-08-09T02:11:25,42.805,6.029,-0.04,0.027,0.0,103.0,108.0,98.0,13.3,1505.3,328.0,-0.7,1.8,2470.13,13.33,0.048,304.0
2019-08-09T02:14:26,42.805,6.029,-0.065,0.006,-0.034,101.0,106.0,98.0,13.4,1505.3,325.4,-0.7,1.8,2470.12,13.33,0.065,275.3
2019-08-09T02:17:27,42.805,6.029,-0.024,0.026,0.019,103.0,105.0,99.0,13.3,1505.3,326.5,-0.7,1.8,2470.093,13.33,0.035,317.3
2019-08-09T02:20:28,42.805,6.029,-0.035,0.02,-0.018,102.0,106.0,98.0,13.4,1505.3,326.3,-0.7,1.8,2470.166,13.33,0.04,299.7
2019-08-09T02:23:29,42.805,6.029,-0.069,0.032,-0.031,101.0,107.0,99.0,13.4,1505.3,324.9,-0.7,1.8,2470.121,13.33,0.076,294.9
2019-08-09T02:26:30,42.805,6.029,-0.022,0.026,0.003,102.0,108.0,98.0,13.3,1505.3,327.6,-0.7,1.8,2470.143,13.33,0.034,319.8
2019-08-09T02:29:31,42.805,6.029,-0.034,0.015,-0.031,100.0,106.0,99.0,13.3,1505.3,327.5,-0.7,1.8,2470.161,13.33,0.037,293.8
2019-08-09T02:32:32,42.805,6.029,-0.032,0.034,-0.008,101.0,107.0,98.0,13.3,1505.3,324.1,-0.7,1.8,2470.137,13.33,0.046,316.7
2019-08-09T02:35:33,42.805,6.029,-0.04,0.025,-0.014,101.0,108.0,100.0,13.4,1505.3,325.9,-0.7,1.8,2470.18,13.33,0.047,302.0
2019-08-09T02:38:34,42.805,6.029,-0.017,0.012,0.013,103.0,106.0,98.0,13.3,1505.3,325.2,-0.7,1.8,2470.081,13.33,0.02,305.2
2019-08-09T02:41:35,42.805,6.029,-0.045,0.017,-0.025,103.0,107.0,100.0,13.4,1505.3,323.7,-0.7,1.8,2470.069,13.33,0.048,290.7
2019-08-09T02:44:36,42.805,6.029,-0.02,0.02,0.006,102.0,107.0,100.0,13.3,1505.3,323.5,-0.7,1.8,2470.122,13.33,0.028,315.0
2019-08-09T02:47:37,42.805,6.029,-0.038,0.002,-0.033,102.0,106.0,100.0,13.4,1505.3,325.4,-0.7,1.8,2470.1,13.33,0.038,273.0
2019-08-09T02:50:38,42.805,6.029,-0.017,0.021,-0.001,101.0,104.0,100.0,13.4,1505.3,326.8,-0.7,1.8,2470.117,13.33,0.027,321.0
2019-08-09T02:53:39,42.805,6.029,-0.054,0.01,0.0,101.0,106.0,99.0,13.4,1505.3,324.7,-0.7,1.8,2470.104,13.33,0.054,280.5
2019-08-09T02:56:40,42.805,6.029,-0.056,0.014,-0.018,102.0,107.0,99.0,13.4,1505.3,327.7,-0.7,1.8,2470.086,13.33,0.057,284.0
2019-08-09T02:59:41,42.805,6.029,-0.033,0.018,-0.01,102.0,108.0,98.0,13.4,1505.3,326.3,-0.7,1.8,2470.099,13.33,0.037,298.6
2019-08-09T03:02:42,42.805,6.029,-0.048,0.025,-0.022,102.0,107.0,98.0,13.4,1505.3,326.6,-0.7,1.9,2470.091,13.33,0.054,297.5
2019-08-09T03:05:43,42.805,6.029,-0.05,0.023,-0.001,102.0,106.0,98.0,13.3,1505.3,323.4,-0.7,1.8,2470.107,13.33,0.055,294.7
2019-08-09T03:08:44,42.805,6.029,-0.053,0.037,-0.012,102.0,107.0,99.0,13.3,1505.3,328.2,-0.7,1.9,2470.093,13.33,0.064,304.9
2019-08-09T03:11:45,42.805,6.029,-0.052,0.025,-0.032,102.0,107.0,99.0,13.4,1505.3,324.3,-0.7,1.8,2470.107,13.33,0.057,295.7
2019-08-09T03:14:46,42.805,6.029,-0.055,0.009,-0.031,102.0,107.0,99.0,13.4,1505.3,325.3,-0.7,1.8,2470.099,13.33,0.055,279.3
2019-08-09T03:17:47,42.805,6.029,-0.054,0.031,-0.002,102.0,107.0,98.0,13.4,1505.3,326.8,-0.7,1.8,2470.065,13.33,0.062,299.9
2019-08-09T03:20:48,42.805,6.029,-0.051,0.005,-0.032,103.0,107.0,98.0,13.4,1505.3,327.0,-0.7,1.8,2470.155,13.33,0.051,275.6
2019-08-09T03:23:49,42.805,6.029,-0.037,0.016,-0.005,100.0,108.0,100.0,13.4,1505.3,324.1,-0.7,1.8,2470.091,13.33,0.04,293.4
2019-08-09T03:26:50,42.805,6.029,-0.037,0.001,-0.009,103.0,108.0,99.0,13.4,1505.3,322.9,-0.7,1.8,2470.016,13.33,0.037,271.5
2019-08-09T03:29:51,42.805,6.029,-0.034,0.014,-0.012,102.0,107.0,98.0,13.4,1505.3,323.9,-0.7,1.8,2470.108,13.33,0.036,292.4
2019-08-09T03:32:52,42.805,6.029,-0.032,0.009,-0.037,103.0,107.0,98.0,13.4,1505.3,326.1,-0.7,1.9,2470.059,13.33,0.033,285.7
2019-08-09T03:35:53,42.805,6.029,-0.023,0.02,-0.02,102.0,108.0,99.0,13.4,1505.3,323.7,-0.7,1.8,2470.062,13.33,0.03,311.0
2019-08-09T03:38:54,42.805,6.029,-0.04,0.018,-0.013,103.0,106.0,100.0,13.4,1505.3,326.6,-0.7,1.8,2470.047,13.33,0.043,294.2
2019-08-09T03:41:55,42.805,6.029,-0.037,0.02,-0.012,103.0,107.0,98.0,13.3,1505.3,324.7,-0.7,1.8,2470.051,13.33,0.042,298.4
2019-08-09T03:44:56,42.805,6.029,-0.075,0.026,-0.035,100.0,107.0,101.0,13.4,1505.3,328.3,-0.7,1.8,2470.111,13.33,0.079,289.1
2019-08-09T03:47:57,42.805,6.029,-0.026,0.021,-0.001,104.0,107.0,99.0,13.4,1505.3,328.0,-0.7,1.8,2470.052,13.33,0.033,308.9
2019-08-09T03:50:58,42.805,6.029,-0.022,-0.011,-0.019,102.0,107.0,98.0,13.3,1505.3,323.9,-0.7,1.8,2470.115,13.33,0.024,243.4
2019-08-09T03:53:59,42.805,6.029,-0.045,0.015,0.0,102.0,106.0,101.0,13.3,1505.3,326.7,-0.7,1.9,2470.035,13.33,0.047,288.4
2019-08-09T03:57:00,42.805,6.029,-0.038,0.015,-0.055,102.0,106.0,99.0,13.4,1505.3,327.0,-0.7,1.8,2470.094,13.33,0.04,291.5
2019-08-09T04:00:01,42.805,6.029,-0.043,0.018,-0.015,102.0,107.0,100.0,13.4,1505.3,326.5,-0.7,1.8,2470.107,13.33,0.046,292.7
2019-08-09T04:03:02,42.805,6.029,-0.077,0.001,-0.056,103.0,106.0,99.0,13.4,1505.3,326.9,-0.7,1.9,2470.064,13.33,0.077,270.7
2019-08-09T04:06:03,42.805,6.029,-0.036,0.013,0.017,103.0,109.0,97.0,13.4,1505.3,327.4,-0.7,1.8,2470.107,13.33,0.038,289.9
2019-08-09T04:09:04,42.805,6.029,-0.027,0.025,-0.011,101.0,107.0,99.0,13.4,1505.3,324.5,-0.7,1.8,2470.111,13.33,0.036,312.8
2019-08-09T04:12:05,42.805,6.029,-0.035,0.034,-0.002,102.0,110.0,98.0,13.4,1505.3,325.3,-0.7,1.8,2470.079,13.33,0.048,314.2
2019-08-09T04:15:06,42.805,6.029,-0.045,0.021,-0.015,101.0,107.0,99.0,13.4,1505.3,325.8,-0.7,1.9,2470.12,13.33,0.049,295.0
2019-08-09T04:18:07,42.805,6.029,-0.058,0.027,-0.056,102.0,110.0,99.0,13.4,1505.3,327.6,-0.7,1.8,2470.112,13.33,0.063,295.0
2019-08-09T04:21:08,42.805,6.029,-0.048,0.014,-0.007,103.0,107.0,100.0,13.3,1505.3,324.7,-0.7,1.9,2470.034,13.33,0.05,286.3
2019-08-09T04:24:09,42.805,6.029,-0.06,0.013,-0.028,101.0,108.0,98.0,13.4,1505.3,326.3,-0.7,1.9,2470.108,13.33,0.061,282.2
2019-08-09T04:27:10,42.805,6.029,-0.072,0.027,-0.009,100.0,108.0,98.0,13.3,1505.3,323.8,-0.7,1.8,2470.147,13.33,0.076,290.6
2019-08-09T04:30:12,42.805,6.029,-0.064,0.021,-0.054,101.0,107.0,99.0,13.4,1505.3,325.9,-0.7,1.8,2470.066,13.33,0.067,288.2
2019-08-09T04:33:12,42.805,6.029,-0.022,0.03,-0.005,103.0,110.0,99.0,13.3,1505.3,324.2,-0.7,1.8,2470.087,13.33,0.037,323.7
2019-08-09T04:36:13,42.805,6.029,-0.022,0.018,-0.011,103.0,107.0,99.0,13.3,1505.3,327.8,-0.7,1.8,2470.047,13.33,0.028,309.3
2019-08-09T04:39:14,42.805,6.029,-0.043,0.027,-0.028,102.0,110.0,97.0,13.4,1505.3,326.3,-0.7,1.8,2470.114,13.33,0.05,302.1
2019-08-09T04:42:15,42.805,6.029,-0.027,0.025,-0.022,101.0,106.0,100.0,13.4,1505.3,324.5,-0.7,1.8,2470.038,13.33,0.036,312.8
2019-08-09T04:45:16,42.805,6.029,-0.046,0.021,-0.014,102.0,108.0,99.0,13.4,1505.3,324.3,-0.7,1.8,2470.03,13.33,0.05,294.5
2019-08-09T04:48:17,42.805,6.029,-0.03,0.029,-0.021,103.0,106.0,100.0,13.4,1505.3,327.7,-0.7,1.8,2470.051,13.33,0.041,314.0
2019-08-09T04:51:18,42.805,6.029,-0.044,0.025,-0.001,102.0,107.0,100.0,13.3,1505.3,327.8,-0.7,1.8,2470.073,13.33,0.05,299.6
2019-08-09T04:54:19,42.805,6.029,-0.061,0.016,-0.027,103.0,107.0,99.0,13.4,1505.3,325.2,-0.7,1.8,2470.076,13.33,0.063,284.7
2019-08-09T04:57:20,42.805,6.029,-0.051,0.0,-0.037,102.0,107.0,98.0,13.4,1505.3,322.7,-0.7,1.8,2470.084,13.33,0.051,270.0
2019-08-09T05:00:21,42.805,6.029,-0.029,0.038,0.009,101.0,107.0,99.0,13.4,1505.3,327.0,-0.7,1.8,2470.072,13.33,0.047,322.7
2019-08-09T05:03:22,42.805,6.029,-0.022,0.027,-0.003,102.0,107.0,99.0,13.3,1505.3,327.8,-0.7,1.8,2470.078,13.33,0.034,320.8
2019-08-09T05:06:23,42.805,6.029,-0.035,0.031,0.009,102.0,108.0,98.0,13.4,1505.3,324.7,-0.7,1.8,2470.107,13.33,0.046,311.5
2019-08-09T05:09:24,42.805,6.029,-0.021,0.014,0.009,103.0,108.0,99.0,13.4,1505.3,326.5,-0.7,1.8,2470.084,13.33,0.025,303.7
2019-08-09T05:12:25,42.805,6.029,-0.055,0.044,-0.024,102.0,108.0,101.0,13.4,1505.3,322.7,-0.7,1.8,2470.052,13.33,0.07,308.7
2019-08-09T05:15:26,42.805,6.029,-0.044,0.021,0.001,102.0,108.0,98.0,13.4,1505.3,327.5,-0.7,1.9,2470.045,13.33,0.048,295.5
2019-08-09T05:18:27,42.805,6.029,-0.049,0.037,0.007,101.0,107.0,99.0,13.4,1505.3,325.1,-0.7,1.8,2470.083,13.33,0.061,307.1
2019-08-09T05:21:28,42.805,6.029,-0.036,0.048,-0.002,101.0,108.0,98.0,13.4,1505.3,325.2,-0.7,1.8,2470.092,13.33,0.06,323.1
2019-08-09T05:24:29,42.805,6.029,-0.046,0.01,-0.01,101.0,108.0,99.0,13.3,1505.3,323.1,-0.7,1.8,2470.033,13.33,0.047,282.3
2019-08-09T05:27:31,42.805,6.029,-0.037,0.029,0.019,102.0,108.0,98.0,13.4,1505.3,327.8,-0.7,1.8,2470.104,13.33,0.047,308.1
2019-08-09T05:30:31,42.805,6.029,-0.059,0.008,-0.026,102.0,108.0,98.0,13.3,1505.3,326.6,-0.7,1.9,2470.084,13.33,0.059,277.7
2019-08-09T05:33:32,42.805,6.029,-0.051,0.019,-0.043,102.0,109.0,99.0,13.4,1505.3,323.2,-0.7,1.8,2470.059,13.33,0.054,290.4
2019-08-09T05:36:33,42.805,6.029,-0.049,0.017,-0.023,102.0,108.0,99.0,13.4,1505.3,327.9,-0.7,1.9,2470.06,13.33,0.051,289.1
2019-08-09T05:39:34,42.805,6.029,-0.043,0.03,-0.003,103.0,107.0,98.0,13.3,1505.3,325.8,-0.8,1.8,2470.05,13.33,0.052,304.9
2019-08-09T05:42:35,42.805,6.029,-0.029,0.015,-0.03,102.0,108.0,100.0,13.4,1505.3,323.6,-0.7,1.9,2470.035,13.33,0.032,297.4
2019-08-09T05:45:36,42.805,6.029,-0.011,0.017,0.004,103.0,108.0,97.0,13.4,1505.3,327.3,-0.7,1.8,2470.049,13.33,0.02,327.1
2019-08-09T05:48:37,42.805,6.029,-0.063,0.038,-0.032,104.0,108.0,99.0,13.4,1505.3,325.3,-0.7,1.8,2470.063,13.33,0.073,301.1
2019-08-09T05:51:38,42.805,6.029,-0.056,0.023,-0.027,102.0,109.0,98.0,13.4,1505.3,325.5,-0.7,1.8,2470.068,13.33,0.06,292.3
2019-08-09T05:54:39,42.805,6.029,-0.036,0.016,-0.03,101.0,107.0,98.0,13.3,1505.3,328.3,-0.7,1.8,2470.045,13.33,0.039,294.0
2019-08-09T05:57:40,42.805,6.029,-0.057,0.051,-0.046,103.0,109.0,99.0,13.3,1505.3,326.6,-0.7,1.8,2470.045,13.33,0.076,311.8
2019-08-09T06:00:41,42.805,6.029,-0.033,0.017,-0.009,103.0,107.0,99.0,13.4,1505.3,324.5,-0.7,1.8,2470.04,13.33,0.037,297.3
2019-08-09T06:03:42,42.805,6.029,-0.042,0.016,-0.011,102.0,110.0,98.0,13.3,1505.3,323.3,-0.7,1.8,2470.032,13.33,0.044,290.9
2019-08-09T06:06:43,42.805,6.029,-0.023,0.008,-0.027,103.0,109.0,98.0,13.3,1505.3,327.9,-0.8,1.8,2470.057,13.33,0.024,289.2
2019-08-09T06:09:44,42.805,6.029,-0.05,0.028,-0.014,102.0,109.0,97.0,13.3,1505.3,326.3,-0.7,1.8,2470.04,13.33,0.057,299.3
2019-08-09T06:12:45,42.805,6.029,-0.041,0.014,-0.001,103.0,107.0,99.0,13.3,1505.3,326.0,-0.7,1.8,2470.014,13.33,0.043,288.9
2019-08-09T06:15:46,42.805,6.029,-0.045,0.029,0.015,102.0,111.0,98.0,13.4,1505.3,326.2,-0.7,1.8,2470.041,13.33,0.053,302.8
2019-08-09T06:18:48,42.805,6.029,-0.053,0.004,-0.023,102.0,106.0,99.0,13.4,1505.3,325.0,-0.7,1.9,2470.025,13.33,0.053,274.3
2019-08-09T06:21:48,42.805,6.029,-0.045,0.032,-0.023,103.0,108.0,99.0,13.3,1505.3,324.5,-0.7,1.8,2470.063,13.33,0.055,305.4
2019-08-09T06:24:49,42.805,6.029,-0.035,0.018,-0.004,102.0,108.0,98.0,13.3,1505.3,323.7,-0.7,1.8,2470.077,13.33,0.039,297.2
2019-08-09T06:27:50,42.805,6.029,-0.055,0.017,-0.022,102.0,109.0,98.0,13.4,1505.3,326.9,-0.7,1.8,2470.023,13.33,0.057,287.2
2019-08-09T06:30:51,42.805,6.029,-0.083,0.028,-0.052,102.0,108.0,99.0,13.4,1505.3,328.3,-0.7,1.8,2469.994,13.33,0.087,288.6
2019-08-09T06:33:52,42.805,6.029,-0.039,0.03,-0.011,102.0,109.0,99.0,13.3,1505.3,324.5,-0.8,1.8,2470.02,13.33,0.049,307.6
2019-08-09T06:36:53,42.805,6.029,-0.042,0.02,-0.033,100.0,109.0,99.0,13.4,1505.3,325.7,-0.7,1.8,2470.064,13.33,0.046,295.5
2019-08-09T06:39:54,42.805,6.029,-0.049,0.013,-0.049,101.0,107.0,100.0,13.4,1505.3,324.1,-0.7,1.8,2470.034,13.33,0.05,284.9
2019-08-09T06:42:55,42.805,6.029,-0.046,0.017,0.013,103.0,106.0,99.0,13.4,1505.3,323.8,-0.7,1.8,2470.005,13.33,0.049,290.3
2019-08-09T06:45:56,42.805,6.029,-0.032,0.032,-0.006,102.0,109.0,98.0,13.4,1505.3,327.9,-0.7,1.9,2470.047,13.33,0.045,315.0
2019-08-09T06:48:57,42.805,6.029,-0.042,0.011,-0.033,101.0,109.0,99.0,13.3,1505.3,326.0,-0.8,1.9,2470.023,13.33,0.043,284.7
2019-08-09T06:51:58,42.805,6.029,-0.046,0.032,-0.005,102.0,109.0,98.0,13.3,1505.3,327.3,-0.7,1.8,2470.028,13.33,0.056,304.8
2019-08-09T06:54:59,42.805,6.029,-0.007,0.018,0.004,101.0,107.0,97.0,13.3,1505.3,325.0,-0.7,1.8,2470.044,13.33,0.019,338.8
2019-08-09T06:58:00,42.805,6.029,-0.062,0.042,-0.008,102.0,107.0,99.0,13.4,1505.3,326.7,-0.7,1.8,2470.038,13.33,0.074,304.1
2019-08-09T07:01:01,42.805,6.029,-0.065,0.026,-0.041,101.0,109.0,98.0,13.3,1505.3,327.5,-0.7,1.8,2470.078,13.33,0.07,291.8
2019-08-09T07:04:02,42.805,6.029,-0.067,0.02,-0.015,102.0,108.0,99.0,13.4,1505.3,327.3,-0.7,1.8,2470.044,13.33,0.069,286.6
2019-08-09T07:07:03,42.805,6.029,-0.035,0.029,0.004,101.0,107.0,99.0,13.4,1505.3,324.9,-0.7,1.8,2470.082,13.33,0.045,309.6
2019-08-09T07:10:04,42.805,6.029,-0.044,0.007,-0.019,101.0,108.0,99.0,13.4,1505.3,326.5,-0.7,1.8,2469.998,13.33,0.044,279.0
2019-08-09T07:13:05,42.805,6.029,-0.055,0.016,-0.039,101.0,109.0,98.0,13.3,1505.3,323.2,-0.7,1.8,2470.054,13.33,0.057,286.2
2019-08-09T07:16:06,42.805,6.029,-0.032,0.004,0.001,101.0,108.0,98.0,13.4,1505.3,325.6,-0.7,1.8,2470.001,13.33,0.032,277.1
2019-08-09T07:19:07,42.805,6.029,-0.023,0.037,0.017,102.0,109.0,99.0,13.3,1505.3,326.3,-0.7,1.9,2469.992,13.33,0.043,328.1
2019-08-09T07:22:08,42.805,6.029,-0.016,0.018,-0.032,104.0,107.0,98.0,13.3,1505.3,324.1,-0.7,1.8,2470.056,13.33,0.024,318.4
2019-08-09T07:25:09,42.805,6.029,-0.057,0.039,-0.009,102.0,110.0,101.0,13.3,1505.3,323.9,-0.7,1.8,2470.069,13.33,0.069,304.4
2019-08-09T07:28:10,42.805,6.029,-0.047,0.025,-0.015,102.0,109.0,100.0,13.3,1505.3,327.8,-0.7,1.8,2470.013,13.33,0.053,298.0
2019-08-09T07:31:11,42.805,6.029,-0.061,0.036,-0.02,100.0,110.0,99.0,13.3,1505.3,325.7,-0.7,1.8,2470.018,13.33,0.07,300.5
2019-08-09T07:34:12,42.805,6.029,-0.014,0.039,0.004,100.0,109.0,100.0,13.3,1505.3,325.8,-0.7,1.8,2469.994,13.33,0.041,340.3
2019-08-09T07:37:13,42.805,6.029,-0.035,0.029,-0.025,101.0,107.0,98.0,13.4,1505.3,325.1,-0.7,1.8,2470.058,13.33,0.045,309.6
2019-08-09T07:40:14,42.805,6.029,-0.005,0.001,0.006,101.0,109.0,99.0,13.3,1505.3,326.5,-0.7,1.8,2470.005,13.33,0.005,281.3
2019-08-09T07:43:15,42.805,6.029,-0.051,0.034,-0.002,100.0,108.0,98.0,13.3,1505.3,327.2,-0.7,1.8,2470.027,13.33,0.061,303.7
2019-08-09T07:46:16,42.805,6.029,-0.041,0.028,-0.024,102.0,110.0,98.0,13.4,1505.3,324.2,-0.7,1.8,2470.005,13.33,0.049,304.3
2019-08-09T07:49:17,42.805,6.029,-0.029,0.029,-0.016,103.0,108.0,99.0,13.4,1505.3,326.5,-0.7,1.8,2470.002,13.33,0.041,315.0
2019-08-09T07:52:18,42.805,6.029,-0.036,0.032,-0.003,101.0,108.0,99.0,13.4,1505.3,323.1,-0.7,1.9,2470.002,13.33,0.048,311.6
2019-08-09T07:55:19,42.805,6.029,-0.038,0.014,-0.015,102.0,109.0,99.0,13.3,1505.3,327.2,-0.7,1.8,2470.009,13.33,0.04,290.2
2019-08-09T07:58:20,42.805,6.029,-0.054,0.033,-0.012,102.0,110.0,98.0,13.4,1505.3,325.1,-0.7,1.8,2470.016,13.33,0.063,301.4
2019-08-09T08:01:21,42.805,6.029,-0.074,0.024,-0.03,102.0,109.0,98.0,13.3,1505.3,325.9,-0.8,1.9,2470.004,13.33,0.077,288.0
2019-08-09T08:04:22,42.805,6.029,-0.042,0.037,-0.028,102.0,108.0,98.0,13.4,1505.3,327.9,-0.7,1.8,2469.976,13.33,0.055,311.4
2019-08-09T08:07:23,42.805,6.029,-0.056,0.026,-0.025,100.0,109.0,99.0,13.4,1505.3,326.9,-0.7,1.8,2469.993,13.33,0.061,294.9
2019-08-09T08:10:24,42.805,6.029,-0.031,0.029,-0.014,102.0,110.0,98.0,13.4,1505.3,328.1,-0.7,1.8,2470.016,13.33,0.042,313.1
2019-08-09T08:13:25,42.805,6.029,-0.044,0.014,-0.035,101.0,110.0,98.0,13.4,1505.3,324.8,-0.7,1.8,2470.023,13.33,0.046,287.6
2019-08-09T08:16:26,42.805,6.029,-0.047,0.045,-0.001,100.0,109.0,98.0,13.4,1505.3,323.3,-0.7,1.9,2469.987,13.33,0.065,313.8
2019-08-09T08:19:27,42.805,6.029,-0.043,0.009,0.003,103.0,108.0,98.0,13.3,1505.3,327.0,-0.8,1.8,2469.927,13.33,0.043,281.8
2019-08-09T08:22:28,42.805,6.029,-0.038,0.031,-0.018,103.0,111.0,97.0,13.4,1505.3,327.4,-0.7,1.8,2470.038,13.33,0.049,309.2
2019-08-09T08:25:30,42.805,6.029,-0.065,0.014,-0.028,99.0,109.0,99.0,13.4,1505.3,324.3,-0.7,1.8,2470.017,13.33,0.066,282.2
2019-08-09T08:28:30,42.805,6.029,-0.067,0.032,-0.015,102.0,108.0,99.0,13.4,1505.3,323.7,-0.7,1.8,2469.974,13.33,0.074,295.5
2019-08-09T08:31:31,42.805,6.029,-0.02,0.028,-0.007,101.0,109.0,98.0,13.4,1505.3,325.4,-0.7,1.9,2469.944,13.33,0.034,324.5
2019-08-09T08:34:32,42.805,6.029,-0.044,0.011,-0.015,101.0,108.0,99.0,13.4,1505.3,323.6,-0.7,1.8,2470.028,13.33,0.045,284.0
2019-08-09T08:37:33,42.805,6.029,-0.056,0.032,-0.034,101.0,109.0,98.0,13.4,1505.3,326.3,-0.7,1.8,2469.955,13.33,0.064,299.7
2019-08-09T08:40:34,42.805,6.029,-0.025,0.03,0.005,102.0,108.0,98.0,13.4,1505.3,327.0,-0.7,1.8,2469.988,13.33,0.039,320.2
2019-08-09T08:43:35,42.805,6.029,-0.033,0.021,-0.004,100.0,109.0,99.0,13.4,1505.3,326.9,-0.7,1.8,2470.002,13.33,0.039,302.5
2019-08-09T08:46:36,42.805,6.029,-0.03,0.036,-0.019,102.0,109.0,98.0,13.3,1505.3,327.6,-0.7,1.8,2470.013,13.33,0.046,320.2
2019-08-09T08:49:37,42.805,6.029,-0.054,0.03,-0.012,100.0,109.0,99.0,13.4,1505.3,326.8,-0.7,1.9,2470.016,13.33,0.061,299.1
2019-08-09T08:52:38,42.805,6.029,-0.051,0.012,-0.03,101.0,108.0,99.0,13.4,1505.3,328.2,-0.7,1.8,2470.054,13.33,0.052,283.2
2019-08-09T08:55:39,42.805,6.029,-0.013,0.039,0.025,100.0,107.0,99.0,13.4,1505.3,326.8,-0.7,1.8,2469.969,13.33,0.041,341.6
2019-08-09T08:58:40,42.805,6.029,-0.006,0.019,0.012,102.0,108.0,98.0,13.4,1505.3,328.2,-0.7,1.8,2469.987,13.33,0.019,342.5
2019-08-09T09:01:41,42.805,6.029,-0.035,0.023,-0.015,100.0,107.0,99.0,13.4,1505.3,325.4,-0.8,1.8,2470.019,13.33,0.041,303.3
2019-08-09T09:04:42,42.805,6.029,-0.002,0.025,-0.021,101.0,108.0,100.0,13.4,1505.3,327.2,-0.7,1.8,2470.023,13.33,0.025,355.4
2019-08-09T09:07:43,42.805,6.029,-0.017,0.02,-0.023,102.0,106.0,99.0,13.4,1505.3,326.1,-0.7,1.8,2469.992,13.33,0.026,319.6
2019-08-09T09:10:44,42.805,6.029,-0.031,0.031,-0.003,102.0,108.0,99.0,13.3,1505.3,328.4,-0.7,1.8,2470.025,13.33,0.043,315.0
2019-08-09T09:13:45,42.805,6.029,-0.03,0.0,-0.017,100.0,107.0,99.0,13.3,1505.3,326.2,-0.7,1.8,2470.011,13.33,0.03,270.0
2019-08-09T09:16:46,42.805,6.029,-0.044,0.03,-0.018,100.0,108.0,99.0,13.4,1505.3,328.4,-0.7,1.8,2469.975,13.33,0.053,304.3
2019-08-09T09:19:48,42.805,6.029,-0.014,0.032,0.017,101.0,109.0,98.0,13.4,1505.3,326.4,-0.7,1.8,2470.011,13.33,0.034,336.4
2019-08-09T09:22:48,42.805,6.029,-0.045,0.014,-0.014,101.0,109.0,97.0,13.3,1505.3,326.8,-0.7,1.8,2470.03,13.33,0.047,287.3
2019-08-09T09:25:49,42.805,6.029,-0.062,0.033,-0.04,101.0,108.0,98.0,13.4,1505.3,324.0,-0.7,1.9,2470.013,13.33,0.07,298.0
2019-08-09T09:28:50,42.805,6.029,-0.06,0.044,0.004,100.0,107.0,99.0,13.4,1505.3,326.6,-0.7,1.8,2469.987,13.33,0.074,306.3
2019-08-09T09:31:51,42.805,6.029,-0.034,0.014,-0.025,101.0,107.0,98.0,13.4,1505.3,324.4,-0.7,1.8,2469.993,13.33,0.036,292.4